STARLINK-2509, 48318

Orbit data source: Space-Track

STARLINK-2509, 48318 is a payload satellite owned by SpaceX/Seattle (US) in LEO that was launched on Thu, 29 Apr 2021 UTC via an FALCON 9 launch vehicle from the Air Force Eastern Test Range (AFETR). Payload-class satellites include a variety of spacecraft equipped with specific instruments for various scientific and technological missions. These include communications satellites like Starlink; space stations such as the ISS; scientific satellites like the Hubble; Earth observation satellites from companies like Planet Labs, Umbra, and HawkEye 360; GPS; miniature CubeSats for education and research; and military/defense satellites.

Loading next visibility...
Identifier
48318, 2021-036AU
Orbit
LEO
Country
Flag of USUS
Related business
Manufacturer
SpaceX/Seattle
Mission
Operational Commercial Communications
Bus & Motor
STARLINK, Unknown motor
Mass
260 kg wet, ~248 kg dry
Launch date (UTC)
2021-04-29 (5 years ago)
Launch vehicle
FALCON 9
Launch site
Air Force Eastern Test Range (AFETR)
Object type
Payload
Rocket body
Debris
Shape & HBR
Box + 1 Pan, 10.1 m
Radar Cross Section
13.562 m², Large (>1 m²)

Expand to show TLE details & history
Last TLE update: 18 hours ago

TLE from 18 hours ago
0 STARLINK-2509
1 48318U 21036AU  26035.88394203  .00000970  00000-0  83996-4 0  9994
2 48318  53.0551 248.8877 0001372  91.7404 268.3742 15.06413994263080
Epoch: 2026-02-04T21:12Z
TLE epoch observation values (Epoch: 2026-02-04T21:12:52.591Z)
Latitude
-0.00003°
Longitude
155.62442°
Altitude
548.075 km
Speed
7.589 km/s
True Right ascension
16h 35m 33s
True Declination
0° 00' 00"
Sunlit
Object was in daylight at epoch
Visualization orbit readout
Latitude
Unknown
Longitude
Unknown
Altitude
Unknown
Speed
Unknown
Apparent Right ascension
Unknown
Apparent Declination
Unknown
Sunlit
N/A
Visualization observer readout
Local Sidereal Time
16:57:20
Azimuth
Unknown
Elevation
Unknown
Doppler factor
Unknown
Orbital elements
Apogee altitude
548.389 km
Perigee altitude
546.489 km
Semi-major axis
6,925.576 km
Eccentricity
0.00014
Inclination
53.0551°
RAAN
248.8877°
Arg. of periapsis
91.7404°
True anomaly
268.35848°
Mean anomaly
268.3742°
Eccentric anomaly
268.36634°
Mean motion
3.76582 °/min
Orbital period
95.6 mins
BSTAR
0.000083996
Loading maneuver chart data...
Computing Atmospheric mass density...
Loading historical data...
Loading historical data...
Loading historical data...
Loading historical data...
Loading historical data...
Loading historical data...
Loading historical data...

Documentation

Showing up to 5 results
|